This is the latest recevied weather packets stored in our database for station/object WB5CFT. If no packets are shown the sender has not sent any weather packets the latest 10 day(s).
| Time | Temp. | Humidity | Pressure | Rain* | Wind** | Luminosity | Snow |
|---|---|---|---|---|---|---|---|
| 1777576604 | 16.67° C | 63% | 1017.2 hPa | 0 mm | - | 164 W/m² | - |
| 1777576300 | 16.11° C | 62% | 1017.3 hPa | 0 mm | - | 194 W/m² | - |
| 1777575996 | 16.11° C | 62% | 1017 hPa | 0 mm | - | 154 W/m² | - |
| 1777575693 | 16.11° C | 61% | 1016.9 hPa | 0 mm | - | 164 W/m² | - |
| 1777575388 | 16.11° C | 62% | 1016.8 hPa | 0 mm | - | 181 W/m² | - |
| 1777575085 | 16.67° C | 61% | 1016.8 hPa | 0 mm | - | 183 W/m² | - |
| 1777574780 | 16.67° C | 58% | 1017.2 hPa | 0 mm | - | 168 W/m² | - |
| 1777574478 | 16.67° C | 56% | 1017.4 hPa | 0 mm | - | 160 W/m² | - |
| 1777574174 | 16.67° C | 57% | 1017.4 hPa | 0 mm | - | 136 W/m² | - |
| 1777573864 | 16.67° C | 57% | 1017.3 hPa | 0 mm | - | 139 W/m² | - |
| 1777573559 | 16.11° C | 57% | 1017.2 hPa | 0 mm | - | 135 W/m² | - |
| 1777573256 | 16.11° C | 57% | 1017.2 hPa | 0 mm | - | 135 W/m² | - |
| 1777572952 | 16.11° C | 58% | 1017 hPa | 0 mm | - | 121 W/m² | - |
| 1777572647 | 16.67° C | 57% | 1016.9 hPa | 0 mm | - | 135 W/m² | - |
| 1777572347 | 16.11° C | 57% | 1017.2 hPa | 0 mm | - | 165 W/m² | - |
| 1777572044 | 16.11° C | 57% | 1017.4 hPa | 0 mm | - | 198 W/m² | - |
| 1777571743 | 16.67° C | 57% | 1017.4 hPa | 0 mm | - | 220 W/m² | - |
| 1777571442 | 16.11° C | 57% | 1017.4 hPa | 0 mm | - | 235 W/m² | - |
| 1777571137 | 16.11° C | 56% | 1017.7 hPa | 0 mm | - | 238 W/m² | - |
| 1777570833 | 16.67° C | 57% | 1017.4 hPa | 0 mm | - | 214 W/m² | - |
| 1777570529 | 16.67° C | 57% | 1017.5 hPa | 0 mm | - | 228 W/m² | - |
| 1777570226 | 16.11° C | 57% | 1017.7 hPa | 0 mm | - | 232 W/m² | - |
| 1777569922 | 16.11° C | 57% | 1017.4 hPa | 0 mm | - | 234 W/m² | - |
| 1777569618 | 16.11° C | 57% | 1017.5 hPa | 0 mm | - | 215 W/m² | - |
| 1777569315 | 16.11° C | 57% | 1017.4 hPa | 0 mm | - | 187 W/m² | - |
* Rain latest hour (hover to see other rain measurements)
** Current wind speed in m/s (hover to see current wind gust speed)